QPF
0.08 0.08 0.06 0.05 0.05 0.04 0.04 0.03 0.03 0.02 0.01 0.01 0.00 0.00 0.00 0.00 0.00 0.00 0.00 0.00 0.00 0.00 0.00 0.00 0.00 0.00 0.01 0.01 0.01 0.01 0.02 0.01 0.01 0.02 0.02 0.03 0.03 0.03
0.04 0.06 0.07 0.06 0.06 0.05 0.04 0.03 0.03 0.03 0.02 0.01 0.00 0.00 0.00 0.00 0.00 0.00 0.00 0.01 0.00 0.00 0.00 0.00 0.00 0.00 0.01 0.01 0.01 0.01 0.01 0.01 0.01 0.01 0.01 0.02 0.03 0.03
0.01 0.02 0.03 0.04 0.04 0.04 0.03 0.03 0.03 0.02 0.02 0.01 0.01 0.01 0.01 0.01 0.01 0.01 0.01 0.01 0.01 0.01 0.00 0.00 0.00 0.00 0.00 0.00 0.01 0.01 0.01 0.02 0.01 0.01 0.01 0.01 0.02 0.03
0.01 0.01 0.01 0.01 0.02 0.02 0.02 0.02 0.03 0.02 0.02 0.01 0.01 0.01 0.01 0.02 0.02 0.02 0.02 0.01 0.01 0.01 0.01 0.01 0.00 0.00 0.01 0.01 0.01 0.01 0.01 0.02 0.02 0.02 0.01 0.01 0.02 0.03
0.01 0.01 0.01 0.00 0.00 0.01 0.01 0.01 0.02 0.02 0.02 0.02 0.02 0.02 0.02 0.02 0.03 0.03 0.02 0.02 0.02 0.02 0.01 0.01 0.01 0.01 0.01 0.01 0.01 0.01 0.01 0.01 0.02 0.02 0.02 0.02 0.02 0.03
0.00 0.00 0.00 0.00 0.00 0.00 0.00 0.01 0.01 0.01 0.01 0.02 0.02 0.02 0.02 0.02 0.02 0.03 0.02 0.02 0.02 0.02 0.02 0.01 0.01 0.01 0.01 0.01 0.01 0.01 0.01 0.01 0.01 0.01 0.01 0.01 0.02 0.02
0.00 0.00 0.00 0.00 0.00 0.00 0.00 0.00 0.00 0.01 0.01 0.01 0.02 0.02 0.02 0.02 0.02 0.02 0.02 0.03 0.02 0.02 0.01 0.01 0.01 0.01 0.01 0.01 0.01 0.01 0.01 0.01 0.01 0.01 0.01 0.01 0.01 0.02
0.00 0.00 0.00 0.00 0.00 0.00 0.00 0.00 0.00 0.00 0.00 0.01 0.01 0.01 0.01 0.01 0.02 0.02 0.02 0.02 0.01 0.01 0.01 0.00 0.00 0.01 0.01 0.01 0.01 0.01 0.01 0.01 0.01 0.01 0.01 0.01 0.01 0.02
0.00 0.00 0.00 0.00 0.00 0.00 0.00 0.00 0.00 0.00 0.00 0.00 0.00 0.00 0.00 0.01 0.01 0.01 0.01 0.01 0.01 0.00 0.00 0.00 0.00 0.00 0.00 0.01 0.01 0.01 0.01 0.01 0.01 0.01 0.01 0.01 0.01 0.01
0.00 0.00 0.00 0.00 0.00 0.00 0.00 0.00 0.00 0.00 0.00 0.00 0.00 0.00 0.00 0.00 0.00 0.00 0.00 0.00 0.00 0.00 0.00 0.00 0.00 0.00 0.01 0.01 0.01 0.01 0.01 0.01 0.01 0.01 0.01 0.01 0.01 0.01
0.00 0.00 0.00 0.00 0.00 0.00 0.00 0.00 0.00 0.00 0.00 0.00 0.00 0.00 0.00 0.00 0.00 0.00 0.00 0.00 0.00 0.00 0.00 0.00 0.00 0.00 0.00 0.00 0.01 0.01 0.01 0.00 0.00 0.00 0.01 0.01 0.01 0.01
0.00 0.00 0.00 0.00 0.00 0.00 0.00 0.00 0.00 0.00 0.00 0.00 0.00 0.00 0.00 0.00 0.00 0.00 0.00 0.00 0.00 0.00 0.00 0.00 0.00 0.00 0.00 0.00 0.00 0.00 0.00 0.00 0.00 0.00 0.00 0.00 0.00 0.00
0.00 0.00 0.00 0.00 0.00 0.00 0.00 0.00 0.00 0.00 0.00 0.00 0.00 0.00 0.00 0.00 0.00 0.00 0.00 0.00 0.00 0.00 0.00 0.00 0.01 0.01 0.01 0.00 0.00 0.00 0.00 0.00 0.00 0.00 0.00 0.00 0.00 0.00
0.00 0.00 0.00 0.01 0.00 0.00 0.00 0.01 0.01 0.00 0.00 0.01 0.00 0.00 0.00 0.00 0.00 0.00 0.00 0.00 0.00 0.00 0.00 0.01 0.01 0.01 0.01 0.01 0.00 0.00 0.00 0.00 0.00 0.00 0.00 0.00 0.00 0.00
0.00 0.01 0.01 0.00 0.00 0.00 0.01 0.01 0.01 0.01 0.01 0.01 0.01 0.01 0.00 0.00 0.00 0.00 0.00 0.00 0.00 0.00 0.00 0.00 0.00 0.00 0.01 0.01 0.01 0.00 0.00 0.00 0.00 0.00 0.00 0.00 0.00 0.00
0.01 0.01 0.01 0.01 0.01 0.00 0.01 0.01 0.01 0.01 0.01 0.01 0.01 0.01 0.00 0.00 0.00 0.00 0.00 0.00 0.00 0.00 0.00 0.00 0.00 0.00 0.00 0.00 0.00 0.00 0.00 0.00 0.00 0.00 0.00 0.00 0.00 0.00
0.02 0.02 0.02 0.02 0.01 0.01 0.01 0.01 0.00 0.01 0.01 0.01 0.01 0.01 0.00 0.00 0.00 0.00 0.00 0.00 0.00 0.00 0.00 0.00 0.00 0.00 0.00 0.00 0.00 0.00 0.00 0.00 0.00 0.00 0.00 0.00 0.00 0.00
0.02 0.02 0.02 0.02 0.01 0.01 0.01 0.01 0.01 0.01 0.01 0.01 0.01 0.01 0.01 0.01 0.00 0.00 0.00 0.00 0.00 0.00 0.00 0.00 0.00 0.00 0.00 0.00 0.00 0.00 0.00 0.00 0.00 0.00 0.00 0.00 0.00 0.00
0.01 0.01 0.01 0.01 0.01 0.01 0.01 0.01 0.01 0.01 0.01 0.01 0.01 0.01 0.01 0.01 0.01 0.01 0.00 0.00 0.00 0.00 0.00 0.00 0.00 0.01 0.01 0.00 0.00 0.00 0.00 0.00 0.00 0.00 0.00 0.00 0.00 0.00
0.01 0.01 0.01 0.01 0.01 0.01 0.01 0.01 0.01 0.01 0.01 0.01 0.01 0.01 0.01 0.01 0.01 0.01 0.01 0.00 0.00 0.00 0.00 0.00 0.00 0.01 0.02 0.01 0.01 0.00 0.00 0.01 0.01 0.01 0.00 0.00 0.00 0.00
0.01 0.01 0.01 0.01 0.01 0.02 0.02 0.01 0.01 0.01 0.01 0.01 0.01 0.01 0.01 0.01 0.01 0.01 0.01 0.01 0.00 0.00 0.00 0.00 0.00 0.00 0.01 0.01 0.01 0.00 0.00 0.00 0.01 0.01 0.01 0.01 0.01 0.00
0.01 0.01 0.01 0.02 0.02 0.02 0.02 0.02 0.01 0.01 0.01 0.01 0.01 0.01 0.01 0.01 0.01 0.01 0.01 0.01 0.01 0.01 0.00 0.00 0.00 0.00 0.01 0.01 0.01 0.00 0.00 0.00 0.00 0.00 0.01 0.02 0.04 0.04
0.01 0.02 0.02 0.02 0.02 0.02 0.02 0.02 0.01 0.01 0.01 0.01 0.01 0.01 0.01 0.01 0.01 0.01 0.01 0.01 0.01 0.01 0.01 0.00 0.00 0.00 0.00 0.00 0.01 0.00 0.00 0.00 0.00 0.00 0.00 0.00 0.01 0.01
MSLP
1021.77 1021.79 1021.78 1021.72 1021.61 1021.45 1021.25 1021.05 1020.86 1020.72 1020.63 1020.60 1020.63 1020.68 1020.74 1020.77 1020.73 1020.61 1020.41 1020.11 1019.75 1019.34 1018.91 1018.49 1018.09 1017.71 1017.37 1017.04 1016.73 1016.43 1016.12 1015.81 1015.49 1015.18 1014.87 1014.55 1014.25 1013.93
1021.76 1021.80 1021.83 1021.80 1021.73 1021.60 1021.43 1021.23 1021.03 1020.85 1020.72 1020.63 1020.59 1020.58 1020.59 1020.57 1020.52 1020.40 1020.20 1019.93 1019.60 1019.22 1018.83 1018.42 1018.04 1017.67 1017.33 1017.02 1016.72 1016.43 1016.14 1015.84 1015.54 1015.24 1014.93 1014.62 1014.30 1013.97
1021.52 1021.59 1021.64 1021.66 1021.63 1021.54 1021.41 1021.24 1021.06 1020.88 1020.72 1020.59 1020.50 1020.44 1020.39 1020.33 1020.25 1020.12 1019.92 1019.66 1019.35 1018.99 1018.61 1018.22 1017.85 1017.50 1017.17 1016.88 1016.60 1016.34 1016.08 1015.82 1015.55 1015.27 1014.98 1014.67 1014.35 1014.01
1021.08 1021.16 1021.24 1021.29 1021.31 1021.29 1021.21 1021.10 1020.95 1020.78 1020.62 1020.47 1020.35 1020.25 1020.16 1020.07 1019.95 1019.80 1019.60 1019.34 1019.03 1018.68 1018.31 1017.93 1017.56 1017.21 1016.90 1016.62 1016.37 1016.14 1015.92 1015.70 1015.47 1015.23 1014.97 1014.68 1014.37 1014.03
1020.49 1020.56 1020.66 1020.75 1020.83 1020.86 1020.85 1020.80 1020.70 1020.57 1020.43 1020.28 1020.15 1020.03 1019.91 1019.79 1019.66 1019.49 1019.27 1019.01 1018.69 1018.34 1017.96 1017.58 1017.21 1016.86 1016.55 1016.28 1016.05 1015.85 1015.66 1015.48 1015.29 1015.09 1014.86 1014.59 1014.29 1013.96
1019.79 1019.86 1019.97 1020.09 1020.22 1020.31 1020.37 1020.38 1020.34 1020.26 1020.15 1020.03 1019.90 1019.77 1019.65 1019.52 1019.38 1019.20 1018.98 1018.72 1018.39 1018.03 1017.64 1017.24 1016.86 1016.49 1016.18 1015.90 1015.68 1015.49 1015.32 1015.17 1015.01 1014.83 1014.63 1014.38 1014.10 1013.78
1019.05 1019.12 1019.24 1019.39 1019.55 1019.70 1019.81 1019.88 1019.90 1019.87 1019.80 1019.71 1019.60 1019.50 1019.39 1019.27 1019.13 1018.97 1018.75 1018.49 1018.17 1017.80 1017.39 1016.98 1016.56 1016.18 1015.83 1015.54 1015.30 1015.10 1014.94 1014.78 1014.63 1014.47 1014.28 1014.04 1013.77 1013.46
1018.34 1018.39 1018.51 1018.68 1018.87 1019.06 1019.22 1019.33 1019.40 1019.41 1019.38 1019.33 1019.26 1019.19 1019.11 1019.02 1018.91 1018.77 1018.59 1018.34 1018.03 1017.66 1017.25 1016.82 1016.38 1015.96 1015.58 1015.25 1014.97 1014.74 1014.55 1014.38 1014.21 1014.03 1013.83 1013.60 1013.33 1013.02
1017.67 1017.73 1017.85 1018.02 1018.23 1018.43 1018.62 1018.76 1018.85 1018.90 1018.91 1018.90 1018.87 1018.84 1018.80 1018.76 1018.71 1018.61 1018.47 1018.26 1017.98 1017.63 1017.22 1016.77 1016.32 1015.87 1015.44 1015.07 1014.74 1014.46 1014.21 1014.00 1013.79 1013.57 1013.34 1013.08 1012.80 1012.48
1017.08 1017.13 1017.25 1017.42 1017.63 1017.84 1018.03 1018.18 1018.29 1018.35 1018.39 1018.41 1018.42 1018.44 1018.46 1018.48 1018.49 1018.46 1018.37 1018.22 1017.98 1017.67 1017.28 1016.84 1016.37 1015.89 1015.43 1015.00 1014.61 1014.26 1013.96 1013.67 1013.40 1013.13 1012.85 1012.55 1012.23 1011.90
1016.56 1016.60 1016.72 1016.88 1017.08 1017.27 1017.45 1017.60 1017.70 1017.78 1017.83 1017.88 1017.93 1017.99 1018.07 1018.15 1018.22 1018.26 1018.25 1018.17 1017.99 1017.72 1017.37 1016.95 1016.48 1015.99 1015.50 1015.02 1014.58 1014.16 1013.78 1013.42 1013.07 1012.73 1012.39 1012.03 1011.68 1011.32
1016.07 1016.11 1016.22 1016.37 1016.55 1016.73 1016.89 1017.02 1017.12 1017.19 1017.25 1017.31 1017.39 1017.49 1017.62 1017.76 1017.90 1018.01 1018.07 1018.06 1017.95 1017.74 1017.44 1017.05 1016.60 1016.11 1015.60 1015.09 1014.59 1014.12 1013.67 1013.23 1012.81 1012.39 1011.98 1011.57 1011.16 1010.76
1015.58 1015.63 1015.73 1015.87 1016.03 1016.19 1016.33 1016.44 1016.53 1016.60 1016.66 1016.73 1016.83 1016.96 1017.12 1017.31 1017.50 1017.68 1017.80 1017.85 1017.81 1017.67 1017.42 1017.08 1016.66 1016.18 1015.67 1015.14 1014.61 1014.09 1013.58 1013.07 1012.58 1012.09 1011.61 1011.14 1010.69 1010.26
1015.07 1015.12 1015.21 1015.35 1015.49 1015.64 1015.76 1015.86 1015.94 1016.00 1016.06 1016.14 1016.25 1016.40 1016.59 1016.80 1017.03 1017.25 1017.43 1017.54 1017.55 1017.47 1017.28 1016.99 1016.61 1016.16 1015.66 1015.13 1014.58 1014.03 1013.47 1012.92 1012.36 1011.82 1011.28 1010.76 1010.26 1009.79
1014.50 1014.55 1014.64 1014.77 1014.91 1015.04 1015.16 1015.26 1015.34 1015.40 1015.47 1015.55 1015.66 1015.82 1016.02 1016.25 1016.50 1016.74 1016.96 1017.11 1017.17 1017.14 1017.00 1016.76 1016.43 1016.02 1015.54 1015.02 1014.47 1013.89 1013.31 1012.72 1012.13 1011.54 1010.96 1010.39 1009.85 1009.35
1013.85 1013.89 1013.98 1014.10 1014.24 1014.38 1014.51 1014.61 1014.70 1014.77 1014.85 1014.94 1015.06 1015.22 1015.42 1015.66 1015.92 1016.18 1016.41 1016.59 1016.69 1016.70 1016.61 1016.41 1016.12 1015.75 1015.30 1014.80 1014.25 1013.67 1013.08 1012.47 1011.85 1011.23 1010.62 1010.03 1009.46 1008.93
1013.11 1013.14 1013.23 1013.35 1013.49 1013.64 1013.78 1013.90 1014.00 1014.10 1014.19 1014.30 1014.43 1014.60 1014.81 1015.04 1015.31 1015.57 1015.81 1016.01 1016.14 1016.18 1016.13 1015.97 1015.72 1015.38 1014.96 1014.47 1013.94 1013.36 1012.76 1012.15 1011.52 1010.89 1010.26 1009.65 1009.06 1008.51
1012.30 1012.31 1012.38 1012.50 1012.64 1012.80 1012.95 1013.10 1013.23 1013.35 1013.47 1013.61 1013.76 1013.94 1014.16 1014.41 1014.68 1014.95 1015.20 1015.42 1015.57 1015.64 1015.61 1015.48 1015.26 1014.94 1014.54 1014.07 1013.55 1012.98 1012.38 1011.77 1011.14 1010.50 1009.87 1009.26 1008.66 1008.10
1011.45 1011.43 1011.48 1011.58 1011.71 1011.88 1012.04 1012.21 1012.37 1012.53 1012.68 1012.85 1013.03 1013.24 1013.49 1013.76 1014.05 1014.34 1014.61 1014.84 1015.01 1015.10 1015.09 1014.98 1014.78 1014.47 1014.08 1013.62 1013.10 1012.54 1011.96 1011.35 1010.73 1010.10 1009.48 1008.87 1008.27 1007.70
1010.60 1010.54 1010.55 1010.63 1010.75 1010.90 1011.07 1011.25 1011.44 1011.62 1011.82 1012.02 1012.25 1012.51 1012.79 1013.10 1013.42 1013.74 1014.04 1014.30 1014.48 1014.59 1014.59 1014.50 1014.29 1013.99 1013.60 1013.14 1012.63 1012.07 1011.49 1010.89 1010.29 1009.69 1009.09 1008.49 1007.91 1007.34
1009.79 1009.69 1009.66 1009.69 1009.78 1009.91 1010.07 1010.26 1010.46 1010.67 1010.90 1011.15 1011.43 1011.74 1012.07 1012.43 1012.80 1013.16 1013.50 1013.78 1013.99 1014.11 1014.12 1014.02 1013.81 1013.50 1013.11 1012.64 1012.12 1011.57 1011.00 1010.43 1009.85 1009.28 1008.71 1008.15 1007.59 1007.04
1009.06 1008.91 1008.83 1008.82 1008.86 1008.96 1009.10 1009.27 1009.47 1009.70 1009.96 1010.26 1010.59 1010.95 1011.35 1011.77 1012.20 1012.60 1012.98 1013.29 1013.51 1013.63 1013.64 1013.54 1013.31 1012.99 1012.59 1012.11 1011.60 1011.06 1010.51 1009.96 1009.42 1008.90 1008.38 1007.86 1007.34 1006.81
1008.42 1008.23 1008.10 1008.04 1008.03 1008.08 1008.18 1008.33 1008.52 1008.76 1009.05 1009.38 1009.76 1010.19 1010.64 1011.12 1011.60 1012.05 1012.46 1012.79 1013.03 1013.15 1013.15 1013.03 1012.79 1012.46 1012.04 1011.56 1011.05 1010.53 1010.02 1009.51 1009.03 1008.56 1008.10 1007.64 1007.17 1006.68
Thickness
5545 5543 5541 5539 5536 5534 5533 5532 5532 5538 5542 5538 5531 5527 5523 5521 5519 5518 5518 5516 5516 5516 5516 5517 5517 5517 5517 5517 5517 5518 5519 5519 5520 5521 5522 5523 5525 5527
5534 5532 5530 5527 5525 5522 5520 5518 5516 5517 5522 5523 5518 5514 5510 5508 5506 5505 5504 5503 5503 5503 5503 5503 5503 5503 5503 5503 5504 5504 5505 5506 5506 5506 5507 5508 5510 5511
5523 5521 5519 5516 5514 5511 5508 5506 5504 5502 5505 5507 5503 5500 5497 5495 5494 5492 5491 5490 5491 5490 5489 5489 5489 5489 5489 5489 5489 5490 5491 5491 5491 5492 5492 5493 5494 5497
5512 5509 5507 5504 5501 5499 5496 5494 5492 5489 5489 5490 5489 5486 5484 5481 5480 5479 5478 5477 5477 5476 5476 5476 5475 5475 5475 5475 5475 5475 5475 5476 5476 5477 5477 5478 5479 5481
5500 5498 5495 5492 5490 5487 5485 5482 5479 5477 5475 5475 5475 5472 5470 5467 5466 5465 5464 5464 5464 5463 5463 5462 5462 5461 5461 5461 5460 5460 5461 5461 5462 5462 5462 5463 5464 5466
5488 5486 5483 5481 5478 5475 5472 5470 5467 5465 5463 5461 5460 5459 5456 5454 5452 5451 5452 5451 5451 5450 5449 5448 5448 5447 5447 5447 5446 5446 5446 5447 5447 5448 5449 5449 5450 5451
5478 5474 5472 5468 5465 5463 5460 5457 5454 5452 5451 5449 5448 5446 5444 5441 5439 5437 5436 5436 5438 5436 5435 5435 5435 5434 5433 5433 5432 5432 5432 5432 5433 5433 5434 5435 5435 5436
5467 5464 5461 5457 5454 5450 5447 5444 5441 5439 5438 5436 5435 5433 5432 5428 5425 5422 5421 5422 5425 5423 5420 5422 5421 5421 5420 5419 5418 5417 5417 5417 5418 5418 5419 5419 5420 5421
5457 5454 5451 5448 5443 5441 5437 5433 5430 5427 5424 5422 5422 5420 5418 5415 5411 5409 5408 5407 5408 5407 5405 5409 5409 5408 5407 5405 5404 5403 5403 5403 5403 5403 5404 5404 5405 5406
5447 5444 5442 5439 5435 5431 5427 5424 5421 5418 5414 5410 5409 5406 5403 5401 5398 5396 5394 5393 5394 5393 5390 5393 5396 5395 5393 5392 5390 5389 5388 5388 5388 5389 5389 5390 5391 5392
5438 5434 5431 5428 5425 5420 5416 5414 5411 5407 5402 5398 5396 5393 5390 5387 5385 5383 5382 5382 5383 5383 5378 5377 5380 5380 5380 5380 5378 5375 5375 5374 5375 5375 5376 5376 5377 5378
5429 5425 5420 5417 5414 5409 5406 5404 5401 5398 5393 5389 5386 5383 5380 5377 5374 5371 5370 5369 5368 5368 5366 5363 5363 5362 5366 5368 5365 5363 5363 5363 5363 5363 5363 5363 5363 5365
5418 5415 5412 5407 5403 5399 5396 5394 5391 5386 5383 5379 5376 5374 5371 5367 5364 5361 5358 5356 5354 5353 5351 5348 5347 5346 5345 5351 5353 5351 5351 5351 5352 5352 5352 5351 5351 5352
5407 5405 5401 5396 5392 5389 5386 5383 5379 5374 5372 5369 5367 5364 5361 5357 5354 5351 5348 5344 5342 5340 5338 5334 5332 5331 5331 5334 5338 5341 5340 5339 5340 5340 5340 5341 5341 5341
5397 5393 5389 5385 5381 5378 5376 5372 5368 5365 5362 5359 5357 5354 5351 5347 5344 5340 5338 5334 5332 5329 5327 5324 5321 5320 5318 5319 5323 5326 5328 5329 5329 5329 5329 5329 5330 5332
5385 5382 5378 5375 5371 5368 5365 5362 5359 5356 5353 5350 5347 5344 5340 5336 5334 5331 5328 5326 5324 5323 5319 5315 5312 5310 5310 5310 5311 5314 5315 5317 5319 5319 5319 5320 5321 5322
5375 5372 5369 5366 5363 5360 5357 5353 5350 5346 5343 5340 5337 5334 5331 5328 5325 5322 5319 5316 5315 5314 5312 5308 5305 5303 5302 5301 5303 5306 5308 5309 5309 5309 5310 5312 5315 5315
5364 5364 5361 5358 5354 5351 5348 5344 5340 5337 5334 5331 5328 5325 5322 5319 5316 5313 5310 5308 5307 5305 5303 5300 5297 5297 5298 5299 5296 5297 5298 5299 5300 5300 5300 5303 5309 5311
5356 5356 5353 5350 5346 5343 5340 5336 5333 5329 5326 5322 5320 5317 5314 5311 5308 5305 5302 5300 5298 5296 5294 5291 5288 5287 5289 5293 5295 5289 5289 5290 5291 5293 5293 5294 5298 5304
5348 5346 5344 5341 5338 5335 5332 5329 5325 5322 5318 5315 5312 5309 5306 5303 5300 5298 5295 5292 5290 5288 5286 5284 5281 5279 5278 5279 5281 5282 5280 5280 5282 5285 5287 5289 5292 5296
5339 5337 5335 5333 5330 5327 5324 5321 5318 5315 5312 5308 5305 5302 5298 5295 5293 5290 5287 5285 5282 5280 5279 5278 5275 5271 5268 5268 5271 5277 5279 5276 5275 5275 5278 5280 5286 5292
5331 5329 5327 5325 5322 5320 5317 5314 5312 5309 5305 5302 5299 5296 5292 5289 5286 5283 5281 5278 5276 5274 5272 5271 5268 5265 5264 5264 5267 5271 5274 5274 5274 5273 5273 5272 5274 5280
5323 5322 5320 5318 5315 5313 5310 5307 5305 5302 5299 5296 5293 5289 5286 5283 5280 5278 5275 5272 5270 5267 5265 5264 5263 5261 5260 5260 5261 5264 5266 5269 5271 5274 5275 5273 5272 5273